DAL874 KATL-KBOI

Flight info

Callsign DAL874
Flight time N/A
Altitude 32000
Route NASSA2 VUZ HRISN CLOUT IZAAC SUTTN J52 TXK PER HYS HLC CYS MBW BPI PIH
Aircraft B739/M-SDE2E3FGHIRWXY/LB1

Departure

Time N/A
Airport Hartsfield Jackson Atlanta International Airport (KATL)

Arrival

Time 2026-05-06 19:01
Airport Boise Air Terminal/Gowen Field (KBOI)
Time Latitude Longitude Altitude Speed Heading
2026-05-06 16:09 34.37379 -94.86380 32261 ft 428 kts 309°
2026-05-06 16:09 34.39731 -94.88569 32561 ft 426 kts 309°
2026-05-06 16:09 34.42079 -94.90753 32894 ft 423 kts 309°
2026-05-06 16:10 34.44407 -94.92920 33252 ft 420 kts 309°
2026-05-06 16:10 34.46722 -94.95078 33546 ft 418 kts 308°
2026-05-06 16:10 34.49022 -94.97228 33798 ft 418 kts 308°
2026-05-06 16:10 34.51324 -94.99383 33980 ft 417 kts 308°
2026-05-06 16:11 34.55924 -95.03696 34007 ft 418 kts 308°
2026-05-06 16:11 34.60514 -95.07999 34021 ft 416 kts 308°
2026-05-06 16:12 34.65049 -95.12255 34024 ft 414 kts 308°
2026-05-06 16:12 34.69602 -95.16535 34028 ft 413 kts 308°
2026-05-06 16:13 34.74137 -95.20805 34037 ft 412 kts 308°
2026-05-06 16:13 34.78664 -95.25074 34026 ft 411 kts 308°
2026-05-06 16:14 34.83171 -95.29329 34040 ft 409 kts 308°
2026-05-06 16:14 34.87670 -95.33583 34041 ft 408 kts 308°
2026-05-06 16:15 34.92118 -95.37794 34049 ft 407 kts 308°
2026-05-06 16:15 34.96582 -95.42027 34055 ft 406 kts 308°
2026-05-06 16:16 35.01026 -95.46247 34063 ft 405 kts 308°
2026-05-06 16:16 35.05464 -95.50468 34069 ft 404 kts 308°
2026-05-06 16:17 35.09891 -95.54683 34074 ft 403 kts 308°
2026-05-06 16:17 35.14317 -95.58906 34073 ft 403 kts 308°
2026-05-06 16:18 35.18737 -95.63128 34074 ft 404 kts 308°
2026-05-06 16:18 35.23142 -95.67342 34076 ft 405 kts 308°
2026-05-06 16:19 35.27584 -95.71597 34077 ft 406 kts 308°
2026-05-06 16:19 35.31317 -95.75177 34061 ft 407 kts 308°
2026-05-06 16:20 35.35784 -95.79466 34077 ft 408 kts 308°
2026-05-06 16:20 35.40225 -95.83734 34103 ft 408 kts 308°
2026-05-06 16:21 35.44703 -95.88046 34111 ft 409 kts 308°
2026-05-06 16:21 35.49178 -95.92362 34120 ft 410 kts 308°
2026-05-06 16:22 35.53662 -95.96691 34127 ft 410 kts 307°
2026-05-06 16:22 35.58140 -96.01021 34127 ft 409 kts 307°
2026-05-06 16:23 35.62611 -96.05351 34136 ft 409 kts 307°
2026-05-06 16:23 35.67074 -96.09680 34126 ft 409 kts 307°
2026-05-06 16:24 35.71536 -96.14015 34127 ft 408 kts 307°
2026-05-06 16:24 35.75986 -96.18343 34117 ft 408 kts 307°
2026-05-06 16:25 35.80433 -96.22677 34124 ft 407 kts 307°
2026-05-06 16:25 35.84877 -96.27013 34102 ft 408 kts 307°
2026-05-06 16:26 35.89318 -96.31352 34113 ft 407 kts 307°
2026-05-06 16:26 35.93751 -96.35690 34103 ft 406 kts 307°
2026-05-06 16:27 35.98171 -96.40021 34127 ft 405 kts 307°
2026-05-06 16:27 36.02558 -96.44327 34113 ft 405 kts 307°
2026-05-06 16:28 36.06966 -96.48660 34122 ft 404 kts 307°
2026-05-06 16:28 36.11396 -96.53021 34123 ft 404 kts 307°
2026-05-06 16:29 36.15768 -96.57332 34126 ft 404 kts 307°
2026-05-06 16:29 36.20176 -96.61685 34119 ft 405 kts 307°
2026-05-06 16:30 36.23838 -96.65305 34110 ft 405 kts 307°
2026-05-06 16:30 36.28983 -96.70399 34108 ft 405 kts 307°
2026-05-06 16:31 36.33386 -96.74766 34108 ft 405 kts 307°
2026-05-06 16:31 36.37789 -96.79139 34108 ft 405 kts 307°
2026-05-06 16:32 36.42196 -96.83522 34112 ft 406 kts 307°
2026-05-06 16:32 36.46599 -96.87909 34115 ft 406 kts 307°
2026-05-06 16:33 36.51005 -96.92305 34123 ft 406 kts 307°
2026-05-06 16:34 36.57590 -96.98887 34140 ft 407 kts 307°
2026-05-06 16:34 36.62005 -97.03309 34150 ft 407 kts 307°
2026-05-06 16:35 36.66421 -97.07738 34146 ft 407 kts 307°
2026-05-06 16:35 36.70832 -97.12169 34156 ft 407 kts 307°
2026-05-06 16:36 36.75242 -97.16601 34149 ft 408 kts 307°
2026-05-06 16:36 36.79716 -97.20976 34152 ft 409 kts 308°
2026-05-06 16:37 36.84217 -97.25331 34150 ft 409 kts 308°
2026-05-06 16:37 36.88710 -97.29693 34155 ft 409 kts 308°
2026-05-06 16:38 36.93173 -97.34043 34148 ft 409 kts 308°
2026-05-06 16:38 36.97658 -97.38427 34141 ft 409 kts 308°
2026-05-06 16:39 37.02144 -97.42819 34142 ft 409 kts 308°
2026-05-06 16:39 37.06623 -97.47212 34149 ft 409 kts 309°
2026-05-06 16:40 37.11102 -97.51611 34148 ft 409 kts 309°
2026-05-06 16:40 37.15552 -97.55988 34155 ft 409 kts 309°
2026-05-06 16:41 37.20021 -97.60390 34156 ft 409 kts 309°
2026-05-06 16:41 37.24491 -97.64801 34160 ft 409 kts 309°
2026-05-06 16:42 37.28959 -97.69217 34156 ft 409 kts 309°
2026-05-06 16:42 37.33425 -97.73638 34163 ft 409 kts 309°
2026-05-06 16:43 37.37893 -97.78067 34154 ft 409 kts 309°
2026-05-06 16:43 37.42368 -97.82510 34166 ft 409 kts 309°
2026-05-06 16:44 37.46834 -97.86951 34165 ft 409 kts 309°
2026-05-06 16:44 37.51304 -97.91403 34174 ft 409 kts 309°
2026-05-06 16:45 37.55766 -97.95854 34163 ft 409 kts 309°
2026-05-06 16:45 37.60229 -98.00312 34166 ft 409 kts 308°
2026-05-06 16:46 37.64663 -98.04749 34164 ft 409 kts 309°
2026-05-06 16:46 37.69114 -98.09210 34166 ft 408 kts 308°
2026-05-06 16:47 37.73559 -98.13672 34167 ft 408 kts 308°
2026-05-06 16:47 37.78009 -98.18147 34170 ft 408 kts 308°
2026-05-06 16:48 37.82449 -98.22618 34171 ft 408 kts 308°
2026-05-06 16:48 37.86894 -98.27102 34177 ft 408 kts 308°
2026-05-06 16:49 37.91331 -98.31584 34180 ft 408 kts 308°
2026-05-06 16:49 37.95768 -98.36073 34181 ft 408 kts 308°
2026-05-06 16:50 38.00172 -98.40537 34183 ft 408 kts 308°
2026-05-06 16:50 38.04618 -98.45050 34188 ft 409 kts 308°
2026-05-06 16:51 38.09058 -98.49564 34190 ft 409 kts 308°
2026-05-06 16:51 38.13497 -98.54084 34193 ft 409 kts 308°
2026-05-06 16:52 38.17934 -98.58610 34203 ft 409 kts 308°
2026-05-06 16:52 38.22369 -98.63141 34213 ft 409 kts 308°
2026-05-06 16:53 38.26777 -98.67651 34219 ft 409 kts 308°
2026-05-06 16:53 38.31214 -98.72200 34223 ft 409 kts 308°
2026-05-06 16:53 38.33431 -98.74474 34611 ft 409 kts 308°
2026-05-06 16:54 38.35662 -98.76769 34470 ft 415 kts 305°
2026-05-06 16:54 38.40210 -98.81462 34323 ft 424 kts 306°
2026-05-06 16:55 38.44815 -98.86199 34244 ft 425 kts 306°
2026-05-06 16:55 38.49416 -98.90935 34231 ft 425 kts 306°
2026-05-06 16:56 38.53987 -98.95655 34218 ft 425 kts 306°
2026-05-06 16:56 38.58583 -99.00412 34214 ft 424 kts 306°
2026-05-06 16:57 38.63175 -99.05176 34221 ft 425 kts 307°
2026-05-06 16:57 38.67772 -99.09952 34223 ft 426 kts 307°
2026-05-06 16:58 38.72376 -99.14744 34222 ft 427 kts 307°
2026-05-06 16:58 38.76961 -99.19524 34217 ft 428 kts 307°
2026-05-06 16:59 38.81598 -99.24365 34223 ft 430 kts 307°
2026-05-06 16:59 38.83768 -99.26925 34214 ft 418 kts 300°
2026-05-06 16:59 38.85612 -99.29754 34221 ft 408 kts 294°
2026-05-06 17:00 38.88437 -99.35911 34217 ft 399 kts 288°
2026-05-06 17:00 38.91141 -99.42167 34212 ft 401 kts 289°
2026-05-06 17:01 38.93869 -99.48445 34214 ft 404 kts 289°
2026-05-06 17:01 38.96621 -99.54761 34215 ft 406 kts 290°
2026-05-06 17:02 38.98922 -99.60044 34217 ft 408 kts 290°
2026-05-06 17:02 39.01702 -99.66435 34207 ft 410 kts 290°
2026-05-06 17:03 39.04493 -99.72865 34209 ft 412 kts 290°
2026-05-06 17:03 39.07288 -99.79317 34205 ft 413 kts 290°
2026-05-06 17:04 39.10087 -99.85794 34208 ft 414 kts 291°
2026-05-06 17:04 39.12892 -99.92297 34212 ft 415 kts 291°
2026-05-06 17:05 39.15695 -99.98811 34209 ft 416 kts 291°
2026-05-06 17:05 39.18501 -100.05344 34211 ft 417 kts 291°
2026-05-06 17:06 39.21305 -100.11889 34193 ft 417 kts 291°
2026-05-06 17:06 39.24088 -100.18396 34220 ft 417 kts 291°
2026-05-06 17:07 39.26910 -100.24946 34203 ft 418 kts 293°
2026-05-06 17:07 39.29882 -100.31411 34206 ft 419 kts 294°
2026-05-06 17:08 39.32892 -100.37870 34198 ft 419 kts 294°
2026-05-06 17:08 39.35881 -100.44335 34198 ft 419 kts 294°
2026-05-06 17:09 39.38855 -100.50814 34198 ft 419 kts 294°
2026-05-06 17:09 39.41820 -100.57298 34197 ft 419 kts 294°
2026-05-06 17:10 39.44776 -100.63779 34200 ft 419 kts 294°
2026-05-06 17:10 39.47731 -100.70271 34201 ft 419 kts 294°
2026-05-06 17:11 39.50684 -100.76770 34203 ft 418 kts 294°
2026-05-06 17:11 39.53632 -100.83273 34205 ft 418 kts 294°
2026-05-06 17:12 39.56576 -100.89781 34207 ft 418 kts 294°
2026-05-06 17:12 39.59514 -100.96287 34203 ft 418 kts 294°
2026-05-06 17:13 39.62450 -101.02805 34201 ft 418 kts 294°
2026-05-06 17:13 39.65380 -101.09321 34233 ft 418 kts 294°
2026-05-06 17:14 39.68315 -101.15864 34234 ft 419 kts 294°
2026-05-06 17:14 39.71228 -101.22370 34238 ft 420 kts 294°
2026-05-06 17:15 39.74163 -101.28939 34231 ft 420 kts 294°
2026-05-06 17:15 39.77095 -101.35517 34223 ft 421 kts 294°
2026-05-06 17:16 39.80031 -101.42115 34204 ft 421 kts 294°
2026-05-06 17:16 39.82960 -101.48711 34201 ft 421 kts 294°
2026-05-06 17:17 39.85883 -101.55309 34200 ft 421 kts 294°
2026-05-06 17:17 39.88807 -101.61924 34203 ft 421 kts 294°
2026-05-06 17:18 39.91730 -101.68551 34197 ft 422 kts 294°
2026-05-06 17:18 39.94653 -101.75194 34195 ft 423 kts 294°
2026-05-06 17:19 39.97578 -101.81852 34194 ft 423 kts 294°
2026-05-06 17:19 40.00498 -101.88515 34198 ft 423 kts 294°
2026-05-06 17:20 40.03421 -101.95199 34196 ft 424 kts 295°
2026-05-06 17:20 40.06325 -102.01854 34188 ft 425 kts 295°
2026-05-06 17:21 40.09250 -102.08571 34189 ft 425 kts 295°
2026-05-06 17:21 40.12173 -102.15298 34189 ft 426 kts 295°
2026-05-06 17:22 40.15094 -102.22035 34195 ft 426 kts 295°
2026-05-06 17:22 40.18010 -102.28776 34197 ft 426 kts 295°
2026-05-06 17:23 40.20906 -102.35486 34200 ft 426 kts 295°
2026-05-06 17:23 40.23819 -102.42251 34198 ft 426 kts 296°
2026-05-06 17:24 40.26724 -102.49012 34204 ft 426 kts 296°
2026-05-06 17:24 40.29631 -102.55792 34200 ft 427 kts 296°
2026-05-06 17:25 40.32536 -102.62582 34203 ft 427 kts 296°
2026-05-06 17:25 40.35439 -102.69383 34202 ft 428 kts 296°
2026-05-06 17:26 40.38339 -102.76191 34201 ft 428 kts 296°
2026-05-06 17:26 40.41238 -102.83013 34194 ft 428 kts 296°
2026-05-06 17:27 40.44117 -102.89804 34191 ft 429 kts 296°
2026-05-06 17:27 40.47016 -102.96655 34189 ft 429 kts 296°
2026-05-06 17:28 40.49912 -103.03518 34190 ft 430 kts 296°
2026-05-06 17:28 40.52815 -103.10411 34196 ft 432 kts 296°
2026-05-06 17:29 40.55723 -103.17333 34196 ft 434 kts 297°
2026-05-06 17:29 40.58645 -103.24304 34192 ft 436 kts 297°
2026-05-06 17:30 40.61575 -103.31309 34196 ft 437 kts 297°
2026-05-06 17:30 40.64497 -103.38311 34195 ft 439 kts 297°
2026-05-06 17:31 40.67437 -103.45373 34198 ft 440 kts 297°
2026-05-06 17:31 40.70382 -103.52463 34188 ft 441 kts 297°
2026-05-06 17:32 40.73323 -103.59560 34191 ft 441 kts 298°
2026-05-06 17:32 40.76261 -103.66668 34183 ft 441 kts 298°
2026-05-06 17:33 40.79191 -103.73773 34185 ft 441 kts 298°
2026-05-06 17:33 40.82117 -103.80884 34220 ft 441 kts 298°
2026-05-06 17:34 40.85036 -103.87996 34251 ft 440 kts 298°
2026-05-06 17:34 40.87952 -103.95117 34288 ft 440 kts 298°
2026-05-06 17:35 40.90856 -104.02228 34298 ft 440 kts 299°
2026-05-06 17:35 40.93760 -104.09354 34294 ft 440 kts 299°
2026-05-06 17:36 40.98087 -104.20003 34284 ft 440 kts 299°
2026-05-06 17:36 41.00976 -104.27135 34279 ft 440 kts 300°
2026-05-06 17:37 41.03862 -104.34276 34266 ft 440 kts 300°
2026-05-06 17:37 41.06744 -104.41425 34238 ft 440 kts 300°
2026-05-06 17:38 41.09623 -104.48586 34217 ft 441 kts 300°
2026-05-06 17:38 41.12508 -104.55775 34199 ft 442 kts 300°
2026-05-06 17:39 41.15391 -104.62980 34193 ft 442 kts 300°
2026-05-06 17:39 41.18275 -104.70202 34182 ft 443 kts 301°
2026-05-06 17:40 41.21172 -104.77425 34179 ft 443 kts 303°
2026-05-06 17:40 41.24560 -104.84171 34180 ft 441 kts 308°
2026-05-06 17:41 41.28123 -104.90810 34188 ft 441 kts 308°
2026-05-06 17:41 41.31668 -104.97483 34189 ft 441 kts 308°
2026-05-06 17:42 41.35174 -105.04174 34208 ft 440 kts 308°
2026-05-06 17:42 41.38658 -105.10865 34194 ft 439 kts 309°
2026-05-06 17:43 41.42133 -105.17559 34201 ft 438 kts 309°
2026-05-06 17:43 41.45594 -105.24239 34207 ft 437 kts 309°
2026-05-06 17:44 41.49046 -105.30914 34182 ft 436 kts 309°
2026-05-06 17:44 41.52466 -105.37541 34182 ft 435 kts 310°
2026-05-06 17:45 41.55896 -105.44201 34167 ft 434 kts 310°
2026-05-06 17:45 41.59313 -105.50851 34167 ft 433 kts 310°
2026-05-06 17:46 41.62697 -105.57453 34166 ft 433 kts 310°
2026-05-06 17:46 41.66095 -105.64093 34165 ft 432 kts 311°
2026-05-06 17:47 41.69480 -105.70725 34170 ft 431 kts 311°
2026-05-06 17:47 41.72859 -105.77358 34164 ft 430 kts 311°
2026-05-06 17:48 41.75656 -105.82859 34167 ft 430 kts 311°
2026-05-06 17:48 41.79014 -105.89478 34165 ft 429 kts 311°
2026-05-06 17:49 41.82364 -105.96094 34164 ft 429 kts 312°
2026-05-06 17:49 41.85164 -106.03266 34166 ft 444 kts 297°
2026-05-06 17:50 41.86810 -106.11319 34159 ft 449 kts 293°
2026-05-06 17:50 41.88352 -106.19441 34166 ft 448 kts 294°
2026-05-06 17:51 41.89910 -106.27544 34168 ft 448 kts 294°
2026-05-06 17:51 41.91474 -106.35575 34157 ft 448 kts 294°
2026-05-06 17:52 41.93061 -106.43714 34171 ft 447 kts 295°
2026-05-06 17:52 41.94633 -106.51803 34167 ft 448 kts 295°
2026-05-06 17:53 41.96191 -106.59852 34168 ft 448 kts 295°
2026-05-06 17:53 41.97754 -106.67969 34168 ft 448 kts 295°
2026-05-06 17:54 41.99311 -106.76088 34165 ft 449 kts 295°
2026-05-06 17:54 42.00862 -106.84208 34162 ft 448 kts 295°
2026-05-06 17:55 42.02407 -106.92336 34173 ft 448 kts 295°
2026-05-06 17:55 42.03944 -107.00453 34165 ft 448 kts 295°
2026-05-06 17:56 42.05476 -107.08576 34167 ft 447 kts 295°
2026-05-06 17:56 42.06999 -107.16688 34166 ft 447 kts 296°
2026-05-06 17:57 42.08517 -107.24802 34176 ft 447 kts 296°
2026-05-06 17:57 42.10027 -107.32911 34174 ft 446 kts 296°
2026-05-06 17:58 42.11531 -107.41024 34174 ft 446 kts 296°
2026-05-06 17:58 42.13021 -107.49092 34174 ft 446 kts 296°
2026-05-06 17:59 42.14525 -107.57269 34177 ft 447 kts 296°
2026-05-06 17:59 42.16002 -107.65341 34176 ft 446 kts 296°
2026-05-06 18:00 42.17482 -107.73466 34189 ft 446 kts 295°
2026-05-06 18:00 42.18960 -107.81605 34171 ft 446 kts 295°
2026-05-06 18:01 42.20429 -107.89734 34171 ft 446 kts 295°
2026-05-06 18:01 42.21891 -107.97862 34175 ft 446 kts 295°
2026-05-06 18:02 42.23348 -108.05998 34175 ft 446 kts 295°
2026-05-06 18:02 42.24789 -108.14076 34172 ft 446 kts 295°
2026-05-06 18:03 42.26234 -108.22219 34177 ft 445 kts 295°
2026-05-06 18:03 42.27668 -108.30335 34178 ft 444 kts 294°
2026-05-06 18:04 42.29097 -108.38464 34174 ft 444 kts 294°
2026-05-06 18:04 42.30516 -108.46563 34181 ft 443 kts 294°
2026-05-06 18:05 42.31930 -108.54671 34170 ft 443 kts 294°
2026-05-06 18:05 42.33336 -108.62771 34185 ft 442 kts 294°
2026-05-06 18:06 42.34733 -108.70853 34176 ft 442 kts 294°
2026-05-06 18:06 42.36124 -108.78934 34175 ft 441 kts 294°
2026-05-06 18:07 42.37508 -108.87017 34188 ft 440 kts 293°
2026-05-06 18:07 42.38884 -108.95089 34193 ft 440 kts 293°
2026-05-06 18:08 42.40242 -109.03092 34188 ft 439 kts 293°
2026-05-06 18:08 42.41604 -109.11150 34199 ft 439 kts 293°
2026-05-06 18:09 42.42957 -109.19196 34207 ft 438 kts 293°
2026-05-06 18:09 42.44306 -109.27250 34208 ft 439 kts 292°
2026-05-06 18:10 42.45651 -109.35320 34211 ft 439 kts 292°
2026-05-06 18:10 42.46990 -109.43394 34200 ft 440 kts 292°
2026-05-06 18:11 42.48327 -109.51494 34205 ft 440 kts 292°
2026-05-06 18:11 42.49649 -109.59543 34204 ft 440 kts 292°
2026-05-06 18:12 42.50975 -109.67651 34200 ft 441 kts 292°
2026-05-06 18:12 42.52296 -109.75769 34202 ft 441 kts 292°
2026-05-06 18:13 42.53610 -109.83883 34201 ft 441 kts 291°
2026-05-06 18:13 42.54919 -109.92002 34207 ft 440 kts 291°
2026-05-06 18:14 42.56213 -110.00066 34200 ft 440 kts 291°
2026-05-06 18:14 42.57510 -110.08180 34204 ft 440 kts 291°
2026-05-06 18:15 42.58718 -110.16344 34203 ft 442 kts 289°
2026-05-06 18:15 42.59725 -110.24611 34209 ft 443 kts 288°
2026-05-06 18:16 42.60707 -110.32858 34186 ft 443 kts 288°
2026-05-06 18:16 42.61710 -110.41125 34172 ft 443 kts 288°
2026-05-06 18:17 42.62715 -110.49326 34162 ft 443 kts 288°
2026-05-06 18:17 42.63725 -110.57589 34143 ft 443 kts 288°
2026-05-06 18:18 42.64729 -110.65849 34171 ft 444 kts 288°
2026-05-06 18:18 42.65729 -110.74133 34176 ft 445 kts 288°
2026-05-06 18:19 42.66725 -110.82440 34176 ft 445 kts 288°
2026-05-06 18:19 42.67714 -110.90750 34179 ft 446 kts 288°
2026-05-06 18:20 42.68699 -110.99078 34189 ft 446 kts 288°
2026-05-06 18:20 42.69678 -111.07404 34190 ft 446 kts 287°
2026-05-06 18:21 42.70650 -111.15732 34193 ft 446 kts 287°
2026-05-06 18:21 42.71620 -111.24083 34175 ft 447 kts 287°
2026-05-06 18:22 42.72585 -111.32453 34159 ft 447 kts 287°
2026-05-06 18:22 42.73540 -111.40798 34153 ft 447 kts 287°
2026-05-06 18:23 42.74482 -111.49089 34159 ft 446 kts 287°
2026-05-06 18:23 42.75428 -111.57452 34155 ft 446 kts 287°
2026-05-06 18:24 42.76365 -111.65803 34157 ft 445 kts 287°
2026-05-06 18:24 42.77294 -111.74133 34156 ft 445 kts 287°
2026-05-06 18:25 42.78219 -111.82479 34160 ft 446 kts 287°
2026-05-06 18:25 42.79130 -111.90767 34156 ft 446 kts 287°
2026-05-06 18:26 42.80044 -111.99131 34147 ft 447 kts 286°
2026-05-06 18:26 42.80952 -112.07503 34157 ft 447 kts 286°
2026-05-06 18:27 42.81856 -112.15895 34152 ft 448 kts 286°
2026-05-06 18:27 42.82756 -112.24313 34148 ft 449 kts 286°
2026-05-06 18:28 42.83647 -112.32717 34167 ft 448 kts 286°
2026-05-06 18:28 42.84531 -112.41110 34170 ft 447 kts 286°
2026-05-06 18:29 42.85409 -112.49495 34191 ft 447 kts 285°
2026-05-06 18:29 42.86282 -112.57886 34186 ft 447 kts 285°
2026-05-06 18:30 42.87196 -112.66203 34171 ft 443 kts 290°
2026-05-06 18:30 42.88801 -112.74224 34172 ft 437 kts 294°
2026-05-06 18:31 42.90537 -112.82167 34170 ft 436 kts 294°
2026-05-06 18:31 42.92236 -112.90104 34158 ft 436 kts 293°
2026-05-06 18:32 42.93899 -112.98058 34148 ft 436 kts 293°
2026-05-06 18:32 42.95543 -113.06011 34135 ft 435 kts 292°
2026-05-06 18:33 42.97179 -113.13963 34133 ft 434 kts 292°
2026-05-06 18:33 42.98536 -113.20576 34137 ft 434 kts 292°
2026-05-06 18:34 43.00425 -113.29814 34133 ft 434 kts 292°
2026-05-06 18:34 43.01781 -113.36469 34144 ft 434 kts 292°
2026-05-06 18:35 43.03396 -113.44428 34137 ft 434 kts 292°
2026-05-06 18:35 43.05003 -113.52382 34135 ft 434 kts 292°
2026-05-06 18:36 43.06605 -113.60338 34136 ft 434 kts 292°
2026-05-06 18:36 43.08202 -113.68304 34137 ft 434 kts 291°
2026-05-06 18:37 43.09792 -113.76263 34135 ft 434 kts 291°
2026-05-06 18:37 43.11377 -113.84234 34133 ft 433 kts 291°
2026-05-06 18:38 43.12944 -113.92139 34130 ft 433 kts 291°
2026-05-06 18:38 43.14519 -114.00118 34135 ft 434 kts 291°
2026-05-06 18:39 43.16088 -114.08096 34136 ft 434 kts 291°
2026-05-06 18:40 43.18437 -114.20113 34152 ft 436 kts 290°
2026-05-06 18:40 43.19999 -114.28149 34157 ft 437 kts 290°
2026-05-06 18:41 43.21561 -114.36213 34171 ft 437 kts 290°
2026-05-06 18:41 43.23101 -114.44211 33757 ft 428 kts 290°
2026-05-06 18:41 43.23858 -114.48150 33010 ft 427 kts 290°
2026-05-06 18:42 43.24607 -114.52041 32200 ft 428 kts 290°
2026-05-06 18:42 43.25365 -114.55991 31519 ft 427 kts 290°
2026-05-06 18:42 43.26114 -114.59918 30949 ft 423 kts 290°
2026-05-06 18:42 43.26853 -114.63803 30424 ft 419 kts 290°
2026-05-06 18:43 43.27585 -114.67651 29808 ft 415 kts 290°
2026-05-06 18:43 43.28311 -114.71474 29199 ft 411 kts 290°
2026-05-06 18:43 43.29028 -114.75255 28601 ft 407 kts 290°
2026-05-06 18:43 43.29748 -114.79050 27406 ft 416 kts 290°
2026-05-06 18:44 43.30494 -114.82961 26064 ft 430 kts 290°
2026-05-06 18:44 43.31250 -114.86957 25151 ft 433 kts 290°
2026-05-06 18:44 43.31998 -114.90948 24521 ft 428 kts 290°
2026-05-06 18:44 43.32731 -114.94879 23946 ft 422 kts 290°
2026-05-06 18:45 43.33450 -114.98728 23172 ft 420 kts 290°
2026-05-06 18:45 43.34176 -115.02607 22374 ft 417 kts 290°
2026-05-06 18:45 43.34895 -115.06456 21610 ft 415 kts 290°
2026-05-06 18:45 43.35608 -115.10279 20860 ft 412 kts 289°
2026-05-06 18:46 43.36318 -115.14098 20128 ft 410 kts 289°
2026-05-06 18:46 43.37017 -115.17885 19413 ft 408 kts 289°
2026-05-06 18:46 43.37711 -115.21658 18735 ft 406 kts 289°
2026-05-06 18:46 43.38396 -115.25386 18103 ft 397 kts 289°
2026-05-06 18:47 43.39058 -115.29006 17443 ft 383 kts 289°
2026-05-06 18:47 43.39695 -115.32497 16878 ft 369 kts 289°
2026-05-06 18:47 43.40311 -115.35855 16355 ft 356 kts 289°
2026-05-06 18:47 43.40906 -115.39095 15874 ft 343 kts 289°
2026-05-06 18:48 43.41481 -115.42223 15452 ft 332 kts 289°
2026-05-06 18:48 43.42034 -115.45225 15035 ft 324 kts 289°
2026-05-06 18:48 43.42577 -115.48183 14602 ft 314 kts 289°
2026-05-06 18:48 43.43093 -115.51020 14504 ft 300 kts 289°
2026-05-06 18:49 43.43598 -115.53785 14363 ft 298 kts 289°
2026-05-06 18:49 43.44108 -115.56563 14142 ft 300 kts 288°
2026-05-06 18:49 43.44626 -115.59334 13805 ft 296 kts 291°
2026-05-06 18:49 43.45366 -115.61927 13428 ft 289 kts 298°
2026-05-06 18:50 43.46224 -115.64417 13089 ft 287 kts 299°
2026-05-06 18:50 43.47075 -115.66898 12739 ft 286 kts 298°
2026-05-06 18:50 43.47761 -115.68956 12458 ft 286 kts 298°
2026-05-06 18:50 43.48583 -115.71455 12125 ft 286 kts 297°
2026-05-06 18:51 43.49393 -115.73942 11803 ft 282 kts 297°
2026-05-06 18:51 43.50190 -115.76395 11516 ft 280 kts 297°
2026-05-06 18:51 43.50984 -115.78844 11182 ft 279 kts 297°
2026-05-06 18:51 43.51765 -115.81253 10864 ft 278 kts 296°
2026-05-06 18:52 43.52561 -115.83715 10538 ft 278 kts 296°
2026-05-06 18:52 43.53347 -115.86145 10204 ft 278 kts 296°
2026-05-06 18:52 43.54110 -115.88508 10088 ft 268 kts 296°
2026-05-06 18:52 43.54858 -115.90829 9874 ft 262 kts 296°
2026-05-06 18:53 43.55593 -115.93107 9554 ft 256 kts 296°
2026-05-06 18:53 43.56303 -115.95310 9245 ft 248 kts 296°
2026-05-06 18:53 43.56996 -115.97462 8917 ft 243 kts 295°
2026-05-06 18:53 43.57670 -115.99561 8623 ft 236 kts 295°
2026-05-06 18:54 43.58326 -116.01599 8441 ft 228 kts 295°
2026-05-06 18:54 43.58968 -116.03597 8337 ft 228 kts 295°
2026-05-06 18:54 43.59624 -116.05579 8240 ft 228 kts 296°
2026-05-06 18:54 43.60304 -116.07560 8146 ft 228 kts 297°
2026-05-06 18:55 43.60981 -116.09528 8018 ft 226 kts 296°
2026-05-06 18:55 43.61649 -116.11460 7898 ft 217 kts 296°
2026-05-06 18:55 43.62278 -116.13250 7916 ft 198 kts 297°
2026-05-06 18:55 43.62866 -116.14910 7951 ft 190 kts 297°
2026-05-06 18:56 43.63442 -116.16554 7996 ft 192 kts 296°
2026-05-06 18:56 43.64019 -116.18222 8006 ft 193 kts 296°
2026-05-06 18:56 43.64601 -116.19901 7996 ft 195 kts 296°
2026-05-06 18:56 43.65182 -116.21589 8006 ft 194 kts 296°
2026-05-06 18:57 43.65764 -116.23284 8011 ft 197 kts 296°
2026-05-06 18:57 43.66340 -116.24972 7987 ft 192 kts 296°
2026-05-06 18:57 43.66920 -116.26688 7463 ft 199 kts 294°
2026-05-06 18:57 43.67415 -116.28468 6961 ft 199 kts 279°
2026-05-06 18:58 43.67118 -116.30287 6442 ft 200 kts 235°
2026-05-06 18:58 43.65982 -116.31225 6199 ft 189 kts 190°
2026-05-06 18:58 43.64672 -116.31342 5668 ft 195 kts 186°
2026-05-06 18:58 43.63275 -116.31541 5048 ft 204 kts 186°
2026-05-06 18:59 43.61914 -116.31663 4898 ft 188 kts 184°
2026-05-06 18:59 43.60652 -116.31758 4639 ft 175 kts 173°
2026-05-06 18:59 43.59536 -116.31086 4045 ft 178 kts 141°
2026-05-06 18:59 43.58851 -116.29746 3668 ft 166 kts 115°
2026-05-06 19:00 43.58449 -116.28340 3416 ft 151 kts 119°
2026-05-06 19:00 43.57995 -116.27098 3286 ft 141 kts 120°
2026-05-06 19:00 43.57575 -116.25879 3148 ft 143 kts 117°
2026-05-06 19:00 43.57139 -116.24649 2942 ft 142 kts 118°
2026-05-06 19:01 43.56726 -116.23453 2881 ft 122 kts 115°
2026-05-06 19:01 43.56459 -116.22668 2882 ft 59 kts 115°
2026-05-06 19:01 43.56291 -116.22186 2878 ft 52 kts 116°
2026-05-06 19:01 43.56162 -116.21801 2880 ft 27 kts 114°
2026-05-06 19:02 43.56221 -116.21693 2880 ft 17 kts 357°
2026-05-06 19:02 43.56337 -116.21711 2879 ft 16 kts 355°
2026-05-06 19:02 43.56448 -116.21723 2880 ft 16 kts 354°
2026-05-06 19:02 43.56554 -116.21737 2880 ft 15 kts 354°
2026-05-06 19:03 43.56656 -116.21748 2880 ft 14 kts 354°
2026-05-06 19:03 43.56701 -116.21797 2880 ft 8 kts 295°
2026-05-06 19:03 43.56714 -116.21840 2880 ft 0 kts 291°